Tracking 23764 objects as of 17-Oct-2021
HD Live streaming from Space Station
objects crossing your sky now

ONEWEB-0292

Track ONEWEB-0292 now!
10-day predictions
ONEWEB-0292 is classified as:


NORAD ID: 49186
Int'l Code: 2021-083A
Perigee: 599.9 km
Apogee: 628.3 km
Inclination: 87.2 °
Period: 96.8 minutes
Semi major axis: 6985 km
RCS: Unknown
Launch date: September 14, 2021
Source: United Kingdom (UK)
Launch site: TYURATAM MISSILE AND SPACE COMPLEX (TTMTR)
aabbcc
Your satellite tracking list
Your tracking list is empty




NASA's NSSDC Master Catalog

Two Line Element Set (TLE):
1 49186U 21083A   21290.16667824 -.00062522  00000-0 -70128-2 0  9995
2 49186  87.1971 316.7594 0020347 181.8985  69.3674 14.87111178  6217
Source of the keplerian elements: AFSPC